Time,TemperatureF,DewpointF,PressureIn,WindDirection,WindDirectionDegrees,WindSpeedMPH,WindSpeedGustMPH,Humidity,HourlyPrecipIn,Conditions,Clouds,dailyrainin,SoftwareType,DateUTC
2013-07-05 00:01:00,81.0,77.0,-100.00,South,170,7.0,11.0,88,-99.99,,,-99.99,,2013-07-05 04:01:00,
2013-07-05 00:12:00,81.0,77.0,-100.00,South,185,6.0,13.0,88,-99.99,,,-99.99,,2013-07-05 04:12:00,
2013-07-05 00:33:00,81.0,77.0,-100.00,SSE,155,5.0,14.0,87,-99.99,,,-99.99,,2013-07-05 04:33:00,
2013-07-05 00:43:00,81.0,76.0,-100.00,SSE,155,5.0,14.0,87,-99.99,,,-99.99,,2013-07-05 04:43:00,
2013-07-05 00:53:00,81.0,76.0,-100.00,South,175,8.0,14.0,87,-99.99,,,-99.99,,2013-07-05 04:53:00,
2013-07-05 01:01:00,81.0,76.0,-100.00,South,170,5.0,12.0,87,-99.99,,,-99.99,,2013-07-05 05:01:00,
2013-07-05 01:12:00,81.0,76.0,-100.00,South,170,4.0,11.0,87,-99.99,,,-99.99,,2013-07-05 05:12:00,
2013-07-05 01:43:00,80.0,77.0,-100.00,South,175,4.0,8.0,88,-99.99,,,-99.99,,2013-07-05 05:43:00,
2013-07-05 01:52:00,80.0,77.0,-100.00,SSE,160,3.0,10.0,88,-99.99,,,-99.99,,2013-07-05 05:52:00,
2013-07-05 02:02:00,81.0,77.0,-100.00,SSE,160,5.0,12.0,88,-99.99,,,-99.99,,2013-07-05 06:02:00,
2013-07-05 02:13:00,81.0,77.0,-100.00,SSE,155,4.0,12.0,88,-99.99,,,-99.99,,2013-07-05 06:13:00,
2013-07-05 02:34:00,80.0,77.0,-100.00,South,170,6.0,10.0,88,-99.99,,,-99.99,,2013-07-05 06:34:00,
2013-07-05 02:44:00,80.0,77.0,-100.00,South,170,4.0,11.0,88,-99.99,,,-99.99,,2013-07-05 06:44:00,
2013-07-05 02:53:00,80.0,77.0,-100.00,South,175,4.0,10.0,89,-99.99,,,-99.99,,2013-07-05 06:53:00,
2013-07-05 03:02:00,80.0,77.0,-100.00,SSE,165,6.0,14.0,89,-99.99,,,-99.99,,2013-07-05 07:02:00,
2013-07-05 03:12:00,80.0,77.0,-100.00,SSE,165,5.0,11.0,89,-99.99,,,-99.99,,2013-07-05 07:12:00,
2013-07-05 03:34:00,80.0,77.0,-100.00,SSE,160,3.0,8.0,89,-99.99,,,-99.99,,2013-07-05 07:34:00,
2013-07-05 03:43:00,80.0,77.0,-100.00,South,170,4.0,10.0,89,-99.99,,,-99.99,,2013-07-05 07:43:00,
2013-07-05 03:53:00,80.0,77.0,-100.00,South,185,2.0,10.0,89,-99.99,,,-99.99,,2013-07-05 07:53:00,
2013-07-05 04:03:00,80.0,77.0,-100.00,South,175,4.0,11.0,89,-99.99,,,-99.99,,2013-07-05 08:03:00,
2013-07-05 04:33:00,80.0,77.0,-100.00,SSE,150,4.0,13.0,89,-99.99,,,-99.99,,2013-07-05 08:33:00,
2013-07-05 04:44:00,80.0,77.0,-100.00,SSE,165,6.0,11.0,89,-99.99,,,-99.99,,2013-07-05 08:44:00,
2013-07-05 04:55:00,80.0,76.0,-100.00,SSE,165,1.0,9.0,89,-99.99,,,-99.99,,2013-07-05 08:55:00,
2013-07-05 05:08:00,80.0,76.0,-100.00,South,170,4.0,9.0,89,-99.99,,,-99.99,,2013-07-05 09:08:00,
2013-07-05 05:37:00,80.0,76.0,-100.00,SSE,165,4.0,6.0,88,-99.99,,,-99.99,,2013-07-05 09:37:00,
2013-07-05 05:48:00,80.0,76.0,-100.00,South,180,2.0,9.0,88,-99.99,,,-99.99,,2013-07-05 09:48:00,
2013-07-05 05:55:00,80.0,76.0,-100.00,SSE,155,4.0,6.0,88,-99.99,,,-99.99,,2013-07-05 09:55:00,
2013-07-05 06:08:00,80.0,76.0,-100.00,South,175,3.0,7.0,88,-99.99,,,-99.99,,2013-07-05 10:08:00,
2013-07-05 06:20:00,80.0,76.0,-100.00,South,170,3.0,7.0,88,-99.99,,,-99.99,,2013-07-05 10:20:00,
2013-07-05 06:38:00,80.0,76.0,-100.00,SSE,160,4.0,8.0,89,-99.99,,,-99.99,,2013-07-05 10:38:00,
2013-07-05 06:47:00,80.0,76.0,-100.00,SSE,165,4.0,6.0,89,-99.99,,,-99.99,,2013-07-05 10:47:00,
2013-07-05 06:56:00,80.0,76.0,-100.00,ESE,120,1.0,5.0,89,-99.99,,,-99.99,,2013-07-05 10:56:00,
2013-07-05 07:10:00,80.0,76.0,-100.00,SSE,165,3.0,7.0,89,-99.99,,,-99.99,,2013-07-05 11:10:00,
2013-07-05 07:18:00,80.0,77.0,-100.00,SE,135,4.0,9.0,89,-99.99,,,-99.99,,2013-07-05 11:18:00,
2013-07-05 07:37:00,81.0,77.0,-100.00,SSE,160,6.0,10.0,88,-99.99,,,-99.99,,2013-07-05 11:37:00,
2013-07-05 07:48:00,81.0,77.0,-100.00,South,170,6.0,11.0,87,-99.99,,,-99.99,,2013-07-05 11:48:00,
2013-07-05 07:58:00,81.0,77.0,-100.00,SSE,160,6.0,11.0,87,-99.99,,,-99.99,,2013-07-05 11:58:00,
2013-07-05 08:10:00,81.0,77.0,-100.00,SSE,165,6.0,14.0,85,-99.99,,,-99.99,,2013-07-05 12:10:00,
2013-07-05 08:17:00,82.0,76.0,-100.00,South,170,7.0,14.0,84,-99.99,,,-99.99,,2013-07-05 12:17:00,
2013-07-05 08:37:00,82.0,76.0,-100.00,South,170,8.0,15.0,82,-99.99,,,-99.99,,2013-07-05 12:37:00,
2013-07-05 08:49:00,83.0,76.0,-100.00,South,185,4.0,14.0,81,-99.99,,,-99.99,,2013-07-05 12:49:00,
2013-07-05 08:57:00,83.0,76.0,-100.00,SSE,160,5.0,10.0,80,-99.99,,,-99.99,,2013-07-05 12:57:00,
2013-07-05 09:07:00,83.0,76.0,-100.00,South,180,6.0,14.0,78,-99.99,,,-99.99,,2013-07-05 13:07:00,
2013-07-05 09:14:00,83.0,75.0,-100.00,SSE,160,7.0,14.0,78,-99.99,,,-99.99,,2013-07-05 13:14:00,
2013-07-05 09:39:00,84.0,75.0,-100.00,South,190,5.0,12.0,74,-99.99,,,-99.99,,2013-07-05 13:39:00,
2013-07-05 09:49:00,83.0,75.0,-100.00,SSE,155,6.0,14.0,76,-99.99,,,-99.99,,2013-07-05 13:49:00,
2013-07-05 09:56:00,85.0,76.0,-100.00,SSE,165,6.0,11.0,74,-99.99,,,-99.99,,2013-07-05 13:56:00,
2013-07-05 10:08:00,84.0,75.0,-100.00,SSE,160,5.0,11.0,75,-99.99,,,-99.99,,2013-07-05 14:08:00,
2013-07-05 10:38:00,85.0,75.0,-100.00,SE,140,9.0,17.0,73,-99.99,,,-99.99,,2013-07-05 14:38:00,
2013-07-05 10:47:00,86.0,75.0,-100.00,SE,135,6.0,17.0,70,-99.99,,,-99.99,,2013-07-05 14:47:00,
2013-07-05 11:25:00,85.0,76.0,-100.00,ESE,110,9.0,18.0,74,-99.99,,,-99.99,,2013-07-05 15:25:00,
2013-07-05 11:34:00,85.0,75.0,-100.00,SSE,155,6.0,14.0,73,-99.99,,,-99.99,,2013-07-05 15:34:00,
2013-07-05 11:43:00,85.0,75.0,-100.00,SE,125,8.0,17.0,72,-99.99,,,-99.99,,2013-07-05 15:43:00,
2013-07-05 12:02:00,85.0,75.0,-100.00,ESE,120,7.0,17.0,72,-99.99,,,-99.99,,2013-07-05 16:02:00,
2013-07-05 12:11:00,85.0,75.0,-100.00,ESE,120,7.0,17.0,72,-99.99,,,-99.99,,2013-07-05 16:11:00,
2013-07-05 12:22:00,85.0,76.0,-100.00,ESE,115,14.0,17.0,75,-99.99,,,-99.99,,2013-07-05 16:22:00,
2013-07-05 12:33:00,85.0,76.0,-100.00,SE,135,9.0,19.0,74,-99.99,,,-99.99,,2013-07-05 16:33:00,
2013-07-05 12:44:00,86.0,76.0,-100.00,SE,135,11.0,21.0,72,-99.99,,,-99.99,,2013-07-05 16:44:00,
2013-07-05 12:53:00,85.0,76.0,-100.00,SE,145,10.0,21.0,75,-99.99,,,-99.99,,2013-07-05 16:53:00,
2013-07-05 13:02:00,85.0,76.0,-100.00,SE,140,10.0,19.0,74,-99.99,,,-99.99,,2013-07-05 17:02:00,
2013-07-05 13:12:00,85.0,76.0,-100.00,SSE,160,10.0,19.0,74,-99.99,,,-99.99,,2013-07-05 17:12:00,
2013-07-05 13:22:00,85.0,76.0,-100.00,SSE,160,10.0,19.0,74,-99.99,,,-99.99,,2013-07-05 17:22:00,
2013-07-05 13:43:00,84.0,76.0,-100.00,SE,130,17.0,23.0,76,-99.99,,,-99.99,,2013-07-05 17:43:00,
2013-07-05 13:53:00,86.0,76.0,-100.00,SSE,155,7.0,21.0,74,-99.99,,,-99.99,,2013-07-05 17:53:00,
2013-07-05 14:02:00,86.0,77.0,-100.00,SE,130,9.0,20.0,74,-99.99,,,-99.99,,2013-07-05 18:02:00,
2013-07-05 14:43:00,86.0,76.0,-100.00,South,175,11.0,20.0,72,-99.99,,,-99.99,,2013-07-05 18:43:00,
2013-07-05 15:02:00,85.0,75.0,-100.00,South,175,11.0,21.0,71,-99.99,,,-99.99,,2013-07-05 19:02:00,
2013-07-05 15:22:00,85.0,74.0,-100.00,SE,140,11.0,19.0,70,-99.99,,,-99.99,,2013-07-05 19:22:00,
2013-07-05 15:34:00,83.0,78.0,-100.00,SSE,160,13.0,22.0,85,-99.99,,,-99.99,,2013-07-05 19:34:00,
2013-07-05 15:43:00,81.0,77.0,-100.00,SSW,200,6.0,18.0,90,-99.99,,,-99.99,,2013-07-05 19:43:00,
2013-07-05 15:53:00,82.0,77.0,-100.00,SE,130,6.0,13.0,86,-99.99,,,-99.99,,2013-07-05 19:53:00,
2013-07-05 16:02:00,84.0,75.0,-100.00,South,175,7.0,16.0,75,-99.99,,,-99.99,,2013-07-05 20:02:00,
2013-07-05 16:11:00,85.0,75.0,-100.00,South,170,10.0,20.0,73,-99.99,,,-99.99,,2013-07-05 20:11:00,
2013-07-05 16:22:00,85.0,75.0,-100.00,South,170,10.0,20.0,73,-99.99,,,-99.99,,2013-07-05 20:22:00,
2013-07-05 16:33:00,84.0,74.0,-100.00,South,170,10.0,21.0,73,-99.99,,,-99.99,,2013-07-05 20:33:00,
2013-07-05 16:43:00,85.0,75.0,-100.00,SE,135,11.0,17.0,73,-99.99,,,-99.99,,2013-07-05 20:43:00,
2013-07-05 16:53:00,84.0,75.0,-100.00,SSE,150,10.0,19.0,75,-99.99,,,-99.99,,2013-07-05 20:53:00,
2013-07-05 17:02:00,84.0,75.0,-100.00,SE,140,9.0,19.0,75,-99.99,,,-99.99,,2013-07-05 21:02:00,
2013-07-05 17:12:00,84.0,75.0,-100.00,South,175,7.0,19.0,74,-99.99,,,-99.99,,2013-07-05 21:12:00,
2013-07-05 17:34:00,77.0,76.0,-100.00,SSE,150,7.0,18.0,96,-99.99,,,-99.99,,2013-07-05 21:34:00,
2013-07-05 17:53:00,80.0,77.0,-100.00,SSE,160,9.0,16.0,93,-99.99,,,-99.99,,2013-07-05 21:53:00,
2013-07-05 18:02:00,81.0,78.0,-100.00,SSE,155,9.0,19.0,88,-99.99,,,-99.99,,2013-07-05 22:02:00,
2013-07-05 18:12:00,82.0,75.0,-100.00,SSE,165,11.0,21.0,79,-99.99,,,-99.99,,2013-07-05 22:12:00,
2013-07-05 18:34:00,83.0,74.0,-100.00,South,170,10.0,24.0,76,-99.99,,,-99.99,,2013-07-05 22:34:00,
2013-07-05 18:43:00,83.0,73.0,-100.00,SSE,155,11.0,21.0,72,-99.99,,,-99.99,,2013-07-05 22:43:00,
2013-07-05 18:53:00,83.0,73.0,-100.00,South,170,10.0,19.0,72,-99.99,,,-99.99,,2013-07-05 22:53:00,
2013-07-05 19:02:00,82.0,75.0,-100.00,SE,145,13.0,24.0,78,-99.99,,,-99.99,,2013-07-05 23:02:00,
2013-07-05 19:11:00,82.0,75.0,-100.00,SSE,155,8.0,16.0,79,-99.99,,,-99.99,,2013-07-05 23:11:00,
2013-07-05 19:32:00,82.0,73.0,-100.00,South,170,10.0,19.0,74,-99.99,,,-99.99,,2013-07-05 23:32:00,
2013-07-05 19:43:00,82.0,73.0,-100.00,South,170,7.0,16.0,74,-99.99,,,-99.99,,2013-07-05 23:43:00,
2013-07-05 19:53:00,83.0,73.0,-100.00,South,170,5.0,17.0,73,-99.99,,,-99.99,,2013-07-05 23:53:00,
2013-07-05 20:02:00,82.0,73.0,-100.00,South,190,8.0,16.0,74,-99.99,,,-99.99,,2013-07-06 00:02:00,
2013-07-05 20:22:00,82.0,73.0,-100.00,South,175,8.0,14.0,75,-99.99,,,-99.99,,2013-07-06 00:22:00,
2013-07-05 20:33:00,82.0,73.0,-100.00,South,185,6.0,16.0,75,-99.99,,,-99.99,,2013-07-06 00:33:00,
2013-07-05 20:42:00,82.0,73.0,-100.00,South,175,7.0,14.0,75,-99.99,,,-99.99,,2013-07-06 00:42:00,
2013-07-05 21:02:00,81.0,73.0,-100.00,South,180,2.0,10.0,76,-99.99,,,-99.99,,2013-07-06 01:02:00,
2013-07-05 21:22:00,81.0,73.0,-100.00,South,180,4.0,11.0,76,-99.99,,,-99.99,,2013-07-06 01:22:00,
2013-07-05 21:43:00,81.0,73.0,-100.00,SSW,195,4.0,10.0,78,-99.99,,,-99.99,,2013-07-06 01:43:00,
2013-07-05 21:53:00,81.0,73.0,-100.00,South,180,2.0,8.0,79,-99.99,,,-99.99,,2013-07-06 01:53:00,
2013-07-05 22:02:00,81.0,73.0,-100.00,South,170,4.0,9.0,79,-99.99,,,-99.99,,2013-07-06 02:02:00,
2013-07-05 22:12:00,81.0,74.0,-100.00,South,175,4.0,7.0,80,-99.99,,,-99.99,,2013-07-06 02:12:00,
2013-07-05 22:22:00,81.0,74.0,-100.00,South,175,4.0,7.0,80,-99.99,,,-99.99,,2013-07-06 02:22:00,
2013-07-05 22:34:00,80.0,74.0,-100.00,SSE,165,4.0,8.0,81,-99.99,,,-99.99,,2013-07-06 02:34:00,
2013-07-05 22:43:00,80.0,74.0,-100.00,South,175,3.0,8.0,81,-99.99,,,-99.99,,2013-07-06 02:43:00,
2013-07-05 22:53:00,80.0,74.0,-100.00,South,175,3.0,7.0,81,-99.99,,,-99.99,,2013-07-06 02:53:00,
2013-07-05 23:02:00,80.0,74.0,-100.00,South,185,2.0,6.0,81,-99.99,,,-99.99,,2013-07-06 03:02:00,
2013-07-05 23:22:00,80.0,74.0,-100.00,South,175,1.0,7.0,82,-99.99,,,-99.99,,2013-07-06 03:22:00,
2013-07-05 23:34:00,80.0,75.0,-100.00,SE,145,2.0,4.0,83,-99.99,,,-99.99,,2013-07-06 03:34:00,
2013-07-05 23:43:00,80.0,74.0,-100.00,South,170,1.0,4.0,83,-99.99,,,-99.99,,2013-07-06 03:43:00,
2013-07-05 23:53:00,80.0,75.0,-100.00,SSW,210,2.0,5.0,84,-99.99,,,-99.99,,2013-07-06 03:53:00,